Flag for Bolivia Weather past 2 weeks in Oruro, Bolivia

Now
55 °F

Partly cloudy.


Feels Like: 55 °F
Forecast: 35 / 64 °F
Wind: No wind

Location: Cochabamba Airport

Current Time: Oct 2, 2014 at 3:42:23 AM

Latest Report: Oct 2, 2014 at 3:00 AM


Visibility: N/A

Pressure: 30.39 "Hg

Humidity: 77%

Dew point: 48 °F

Location of OruroLocation

Historic Weather in Oruro — Graph

°F

Oruro temperature yesterday

Maximum temperature yesterday: 73 °F (at 11:00 AM)
Minimum temperature yesterday: 57 °F (at 6:00 AM)
Average temperature yesterday: 64 °F

Past Weeks' High & Low Weather Summary

 TemperatureHumidityPressure
High84 °F (Sep 17, 2:00 PM)100% (Sep 21, 4:00 AM)30.45 "Hg (Sep 21, 4:00 AM)
Low46 °F (Sep 20, 6:00 AM)10% (Sep 17, 5:00 PM)30.07 "Hg (Sep 19, 4:00 PM)
Average64 °F52%30.25 "Hg
* Reported Sep 17 3:00 AM — Oct 2 3:00 AM, Oruro, Weather by CustomWeather, © 2014

Note: Actual official high and low records may vary slightly from our data, if they occured in-between our weather recording intervals... More about our weather records

Advertising

Oruro weather history for previous 24 hours

 ConditionsComfort  
Time TempWeatherWind HumidityBarometerVisibility
3:00 AM
Oct 2
55 °FPartly cloudy.No wind77%30.39 "HgN/A
2:00 AM55 °FPartly cloudy.No wind72%30.39 "HgN/A
1:00 AM57 °FPartly cloudy.No wind67%30.42 "HgN/A
12:00 AM57 °FPartly cloudy.7 mph63%30.45 "HgN/A
11:00 PM
Oct 1
59 °FPassing clouds.7 mph63%30.45 "HgN/A
10:00 PM59 °FPassing clouds.5 mph55%30.42 "HgN/A
9:00 PM59 °FPassing clouds.5 mph51%30.39 "HgN/A
8:00 PM64 °FOvercast.6 mph43%30.36 "HgN/A
7:00 PM64 °FMostly cloudy.9 mph43%30.33 "HgN/A
6:00 PM64 °FMore clouds than sun.5 mph37%30.30 "HgN/A
5:00 PM64 °FMore clouds than sun.9 mph40%30.27 "HgN/A
4:00 PM64 °FMore clouds than sun.12 mph46%30.33 "HgN/A
3:00 PM68 °FMore clouds than sun.16 mph38%30.33 "HgN/A
2:00 PM70 °FBroken clouds.10 mph40%30.30 "HgN/A
1:00 PM70 °FBroken clouds.10 mph46%30.30 "HgN/A
12:00 PM66 °FLight rain. Broken clouds.7 mph64%30.33 "Hg5 mi
11:00 AM73 °FBroken clouds.3 mph33%30.36 "HgN/A
10:00 AM72 °FPartly sunny.No wind38%30.39 "HgN/A
9:00 AM68 °FPartly sunny.No wind43%30.39 "Hg6 mi
8:00 AM64 °FPartly sunny.No wind52%30.39 "Hg5 mi
7:00 AM61 °FPartly sunny.3 mph55%30.36 "Hg5 mi
6:00 AM57 °FPassing clouds.No wind63%30.33 "Hg5 mi
5:00 AM59 °FPassing clouds.5 mph63%30.33 "HgN/A
4:00 AM59 °FPassing clouds.3 mph59%30.30 "HgN/A
3:00 AM59 °FPassing clouds.No wind55%30.27 "HgN/A
Weather by CustomWeather, © 2014

See weather overviewHow to use our weather pages